[[{"header":{"parameterUnit":"m.s-1","parameterCategory":1,"la1":30.2991,"la2":30.254,"lo1":-89.0895,"lo2":-89.0444,"dy":0.0017,"dx":0.0017,"nx":28,"ny":28,"refTime":"2025-01-11T09:00:00:Z","depth":0,"parameterNumber":2,"parameterNumberName":"U-component_of_WINDS"},"data":[0,0,0,0,0,0,0,0,0,0,0,0,0,0,0,0,0,0,0,0,0,0,0,0,0,0,0,0,0,0,0,0,0,0,0,0,0,0,0,0,0,0,0,0,0,0,0,0,0,0,0,0,0,0,0,0,0,0,-1.5253,-1.5253,0,-1.5313,-1.5314,-1.5314,-1.5334,-1.5334,-1.5334,-1.5334,-1.5395,-1.5397,-1.5399,0,0,0,0,0,0,0,0,0,0,0,0,0,-1.5154,-1.5156,-1.5253,-1.5253,-1.5254,-1.5313,-1.5314,-1.5315,-1.5334,-1.5334,-1.5334,-1.5334,-1.5394,-1.5397,-1.5399,0,0,0,0,0,0,0,0,0,0,0,0,0,-1.5204,-1.5156,-1.5253,-1.5271,-1.5273,-1.5313,-1.5314,-1.5315,-1.5335,-1.5334,-1.5334,-1.5333,-1.5394,-1.5396,-1.5399,-1.5424,0,0,-1.5408,-1.5409,0,0,0,0,0,0,0,0,-1.5201,-1.5207,-1.5268,-1.527,-1.5273,-1.5316,-1.5302,-1.5351,-1.5335,-1.5311,-1.5334,-1.5333,-1.5369,-1.5374,-1.5386,-1.5427,-1.543,-1.5408,-1.541,-1.5411,-1.5412,0,0,0,0,0,0,0,-1.5198,-1.5205,-1.5277,-1.5269,-1.5272,-1.5276,-1.5283,-1.5311,-1.5342,-1.5313,-1.5315,-1.5322,-1.537,-1.5383,-1.5387,-1.5431,-1.5408,-1.541,-1.5412,-1.5413,-1.5495,-1.5495,0,0,0,0,0,0,-1.5191,-1.5202,-1.5275,-1.5278,-1.5235,-1.5278,-1.5286,-1.5302,-1.5341,-1.5347,-1.5322,-1.5323,-1.5379,-1.5384,-1.539,-1.5421,-1.5411,-1.5413,-1.5415,-1.5494,-1.5495,-1.5495,0,0,0,0,0,0,-1.5189,-1.5197,-1.5272,-1.5241,-1.5251,-1.5281,-1.5299,-1.5304,-1.5317,-1.5348,-1.5353,-1.533,-1.5378,-1.5386,-1.5415,-1.5424,-1.5415,-1.5417,-1.5494,-1.5494,-1.5495,-1.5485,0,0,0,0,0,0,-1.5186,-1.5196,-1.5206,-1.5241,-1.5252,-1.5297,-1.5299,-1.5305,-1.5322,-1.5323,-1.5357,-1.5362,-1.5379,-1.5411,-1.5418,-1.5427,-1.5419,-1.5493,-1.5494,-1.5495,-1.5484,-1.5485,-1.5485,0,0,0,0,0,-1.5182,-1.5201,-1.5207,-1.5215,-1.5265,-1.5297,-1.5304,-1.5323,-1.5322,-1.5332,-1.5352,-1.5361,-1.5422,-1.5414,-1.5422,-1.5432,-1.5493,-1.5494,-1.5495,-1.5484,-1.5485,-1.5485,0,0,0,0,0,0,-1.5167,-1.5206,-1.5213,-1.5243,-1.5267,-1.5301,-1.5314,-1.5323,-1.5348,-1.5348,-1.537,-1.5378,-1.5406,-1.5422,-1.5413,-1.5458,-1.5457,-1.546,-1.5447,-1.5448,-1.5448,-1.5444,-1.5422,0,0,0,0,0,-1.5167,-1.519,-1.5223,-1.5247,-1.5258,-1.5284,-1.5299,-1.5312,-1.5337,-1.5347,-1.5369,-1.5393,-1.5418,-1.5434,-1.5458,-1.5487,-1.5494,-1.5498,-1.5498,-1.5499,-1.5501,-1.5517,-1.5519,-1.5499,-1.5499,-1.5499,0,0,-1.5168,-1.5192,-1.5205,-1.5244,-1.5264,-1.5287,-1.5292,-1.5317,-1.5334,-1.5351,-1.538,-1.5397,-1.5425,-1.5455,-1.5469,-1.5469,-1.5508,-1.55,-1.55,-1.5502,-1.5518,-1.552,-1.5522,-1.55,-1.5499,-1.5499,0,0,-1.5181,-1.5201,-1.5223,-1.5243,-1.5273,-1.529,-1.5295,-1.5328,-1.534,-1.5369,-1.5382,-1.5403,-1.5445,-1.5465,-1.548,-1.55,-1.5508,-1.5507,-1.551,-1.5525,-1.5527,-1.5528,-1.5535,-1.5537,-1.5509,-1.5509,-1.5509,0,-1.5178,-1.5213,-1.5233,-1.5257,-1.5274,-1.529,-1.5312,-1.533,-1.5366,-1.5377,-1.5377,-1.543,-1.545,-1.5484,-1.5489,-1.5501,-1.5507,-1.5503,-1.5525,-1.5526,-1.5528,-1.5535,-1.5537,-1.5509,-1.5509,-1.5509,-1.5509,0,-1.5208,-1.5232,-1.5247,-1.5281,-1.5299,-1.5322,-1.5345,-1.5361,-1.5372,-1.5389,-1.5419,-1.5444,-1.5473,-1.5482,-1.5493,-1.5517,-1.5517,-1.552,-1.552,-1.5529,-1.5536,-1.5539,-1.5508,-1.5508,-1.5508,-1.5508,0,0,-1.5214,-1.5259,-1.5263,-1.5279,-1.5313,-1.5332,-1.5355,-1.5384,-1.5397,-1.5422,-1.5441,-1.5476,-1.548,-1.5497,-1.5511,-1.5524,-1.5538,-1.5526,-1.5527,-1.5527,-1.5566,-1.5562,-1.5565,-1.5543,-1.5544,-1.5544,-1.5563,0,-1.5231,-1.5274,-1.5292,-1.5326,-1.5348,-1.5363,-1.5384,-1.5406,-1.5423,-1.5444,-1.5462,-1.5486,-1.5489,-1.55,-1.5514,-1.5533,-1.5546,-1.5532,-1.5562,-1.5563,-1.5554,-1.5569,-1.5566,-1.5582,-1.5566,-1.5566,-1.5567,0,-1.5257,-1.5281,-1.5317,-1.5348,-1.5358,-1.5376,-1.5404,-1.5424,-1.545,-1.5461,-1.548,-1.5492,-1.5517,-1.5515,-1.5549,-1.5539,-1.5552,-1.5564,-1.5565,-1.5568,-1.5565,-1.5573,-1.5588,-1.559,-1.5571,-1.5571,-1.557,0,-1.5258,-1.5299,-1.5326,-1.5339,-1.5375,-1.5388,-1.5403,-1.5429,-1.5445,-1.5469,-1.5479,-1.5506,-1.552,-1.554,-1.556,-1.5556,-1.5592,-1.5591,-1.5601,-1.5601,-1.5608,-1.5607,-1.5626,-1.5616,-1.5616,-1.5616,-1.5616,0,-1.5275,-1.5297,-1.5327,-1.5343,-1.5367,-1.5388,-1.5411,-1.5428,-1.5451,-1.5471,-1.5485,-1.5503,-1.5528,-1.5549,-1.5564,-1.5589,-1.5596,-1.5605,-1.5609,-1.5604,-1.5603,-1.5613,-1.5612,-1.5617,-1.5617,-1.5617,-1.5617,0,-1.528,-1.5301,-1.5331,-1.5363,-1.5371,-1.5388,-1.5415,-1.5431,-1.5448,-1.5473,-1.548,-1.5506,-1.5532,-1.5553,-1.5586,-1.5596,-1.5623,-1.5627,-1.5614,-1.5616,-1.5625,-1.5624,-1.5651,-1.5655,-1.5643,-1.5643,-1.5643,0,-1.529,-1.5307,-1.534,-1.5354,-1.537,-1.5393,-1.5409,-1.543,-1.5446,-1.5476,-1.5489,-1.5516,-1.5538,-1.5578,-1.56,-1.5626,-1.5631,-1.5638,-1.5635,-1.5629,-1.5631,-1.563,-1.5631,-1.5639,-1.5639,-1.5639,-1.5639,0,-1.5305,-1.5315,-1.5337,-1.5364,-1.5383,-1.5405,-1.5427,-1.5438,-1.5462,-1.548,-1.5506,-1.5523,-1.5557,-1.5584,-1.5611,-1.5627,-1.5637,-1.564,-1.5643,-1.5638,-1.563,-1.5635,-1.5615,-1.5639,-1.5639,-1.5639,-1.5639,-1.5639,-1.5313,-1.5328,-1.5354,-1.5379,-1.5398,-1.5418,-1.5435,-1.5453,-1.5476,-1.5505,-1.5516,-1.5543,-1.5567,-1.5606,-1.5622,-1.5643,-1.5644,-1.5649,-1.5651,-1.5652,-1.5651,-1.5626,-1.5648,-1.5648,-1.5648,-1.5648,-1.5648,0,-1.5329,-1.5346,-1.5369,-1.5399,-1.5419,-1.5426,-1.545,-1.5466,-1.549,-1.5512,-1.5534,-1.5564,-1.5589,-1.5612,-1.5639,-1.5651,-1.5656,-1.5657,-1.5656,-1.566,-1.5649,-1.5643,-1.5653,-1.5653,-1.5653,-1.5653,-1.5653,-1.5653,-1.534,-1.5366,-1.5378,-1.5414,-1.5431,-1.5457,-1.5471,-1.5489,-1.5507,-1.554,-1.5561,-1.5576,-1.5599,-1.5627,-1.565,-1.5656,-1.5665,-1.5665,-1.5672,-1.5661,-1.5661,-1.566,-1.5655,-1.5667,-1.5667,-1.5682,-1.5682,-1.5682]},{"header":{"parameterUnit":"m.s-1","parameterCategory":1,"la1":30.2991,"la2":30.254,"lo1":-89.0895,"lo2":-89.0444,"dy":0.0017,"dx":0.0017,"nx":28,"ny":28,"refTime":"2025-01-11T09:00:00:Z","depth":0,"parameterNumber":3,"parameterNumberName":"V-component_of_WINDS"},"data":[0,0,0,0,0,0,0,0,0,0,0,0,0,0,0,0,0,0,0,0,0,0,0,0,0,0,0,0,0,0,0,0,0,0,0,0,0,0,0,0,0,0,0,0,0,0,0,0,0,0,0,0,0,0,0,0,0,0,0.9067,0.9066,0,0.9016,0.9016,0.9015,0.8957,0.8956,0.8955,0.8954,0.8902,0.8901,0.89,0,0,0,0,0,0,0,0,0,0,0,0,0,0.9113,0.9112,0.9067,0.9066,0.9066,0.9016,0.9016,0.9015,0.8957,0.8956,0.8955,0.8954,0.8902,0.8901,0.89,0,0,0,0,0,0,0,0,0,0,0,0,0,0.9081,0.9112,0.9067,0.9031,0.9027,0.9016,0.9016,0.9015,0.8957,0.8956,0.8954,0.8953,0.8902,0.8901,0.89,0.8921,0,0,0.8898,0.8897,0,0,0,0,0,0,0,0,0.9082,0.9079,0.9037,0.9033,0.9029,0.8991,0.9012,0.8983,0.8957,0.8984,0.8954,0.8952,0.8932,0.8929,0.8922,0.8919,0.8916,0.8897,0.8897,0.8897,0.8896,0,0,0,0,0,0,0,0.9085,0.9081,0.9047,0.9036,0.9032,0.9017,0.9011,0.9007,0.8966,0.8981,0.8977,0.8972,0.893,0.8923,0.8921,0.8916,0.8898,0.8897,0.8896,0.8896,0.8924,0.8926,0,0,0,0,0,0,0.9093,0.9083,0.9048,0.9045,0.9053,0.9017,0.901,0.9005,0.8966,0.8959,0.8973,0.8969,0.8925,0.8922,0.8919,0.8939,0.8897,0.8896,0.8895,0.8923,0.8925,0.8926,0,0,0,0,0,0,0.9094,0.909,0.9051,0.9063,0.9057,0.9018,0.9012,0.9005,0.8998,0.896,0.8952,0.8973,0.8924,0.892,0.892,0.8936,0.8895,0.8895,0.8922,0.8924,0.8925,0.8981,0,0,0,0,0,0,0.9095,0.9091,0.9099,0.9064,0.9056,0.9054,0.9013,0.9004,0.8996,0.8991,0.8958,0.8951,0.8923,0.8922,0.892,0.8934,0.8894,0.892,0.8922,0.8925,0.8977,0.8984,0.899,0,0,0,0,0,0.9097,0.9117,0.9099,0.9096,0.9065,0.9055,0.9051,0.9018,0.8998,0.9005,0.898,0.8952,0.8935,0.8923,0.8919,0.8934,0.8919,0.8922,0.8925,0.8974,0.8983,0.899,0,0,0,0,0,0,0.9155,0.9111,0.9092,0.9101,0.9082,0.9045,0.9053,0.9028,0.9015,0.901,0.897,0.8963,0.8968,0.8951,0.8938,0.8951,0.8923,0.8925,0.8962,0.897,0.8976,0.898,0.8893,0,0,0,0,0,0.9169,0.9164,0.9126,0.9138,0.9129,0.9093,0.9087,0.9063,0.9042,0.9034,0.9009,0.899,0.898,0.8974,0.8963,0.8975,0.8966,0.8983,0.899,0.8995,0.8998,0.9001,0.9008,0.8936,0.8935,0.8935,0,0,0.9197,0.9173,0.9172,0.9149,0.9131,0.9127,0.9087,0.9084,0.908,0.9034,0.9032,0.9014,0.8989,0.8995,0.8996,0.8981,0.9016,0.8999,0.9004,0.9003,0.9005,0.9012,0.9018,0.8937,0.8937,0.8937,0,0,0.9246,0.9228,0.9234,0.9218,0.9192,0.9167,0.9169,0.9136,0.9122,0.912,0.9084,0.9079,0.9063,0.9046,0.9036,0.9077,0.905,0.9075,0.9109,0.9112,0.9118,0.9123,0.9136,0.9142,0.9077,0.9078,0.9078,0,0.9284,0.9276,0.9241,0.924,0.923,0.9188,0.9194,0.9179,0.9151,0.9145,0.9128,0.9106,0.9087,0.9087,0.9098,0.9091,0.9091,0.9078,0.912,0.9125,0.9129,0.9141,0.9146,0.9081,0.908,0.908,0.908,0,0.9324,0.9319,0.9327,0.9301,0.9292,0.9295,0.9259,0.9254,0.9231,0.9208,0.9206,0.9181,0.9163,0.9162,0.914,0.9159,0.915,0.9128,0.9098,0.9139,0.915,0.9154,0.9085,0.9084,0.9083,0.9082,0,0,0.9407,0.9361,0.9364,0.9351,0.9319,0.9314,0.9315,0.9297,0.9293,0.9275,0.9274,0.9261,0.9239,0.9227,0.9202,0.9206,0.9238,0.9182,0.9181,0.9192,0.9256,0.9273,0.9279,0.9221,0.9222,0.9222,0.9258,0,0.9449,0.9447,0.9415,0.9422,0.9416,0.9375,0.9375,0.9355,0.9334,0.9325,0.9302,0.9292,0.9265,0.9258,0.926,0.9234,0.925,0.9231,0.9217,0.9217,0.9224,0.9285,0.9302,0.9337,0.9262,0.9263,0.9263,0,0.9498,0.9482,0.9489,0.9455,0.9452,0.9452,0.9433,0.9426,0.9402,0.9386,0.9372,0.9344,0.9341,0.9314,0.9308,0.9296,0.9288,0.9275,0.9275,0.9272,0.9242,0.9281,0.9348,0.9353,0.927,0.9269,0.9269,0,0.9556,0.9537,0.9538,0.9528,0.949,0.9491,0.9475,0.945,0.9441,0.9424,0.9417,0.9401,0.9391,0.9378,0.9346,0.9329,0.9343,0.9314,0.9329,0.933,0.9333,0.9333,0.9397,0.933,0.933,0.933,0.933,0,0.9606,0.9611,0.9563,0.9564,0.9568,0.9531,0.9535,0.9515,0.9493,0.9488,0.9453,0.9449,0.9407,0.9397,0.9372,0.937,0.9367,0.9353,0.9346,0.9355,0.9357,0.9349,0.9345,0.9332,0.9331,0.9331,0.9331,0,0.9671,0.964,0.9638,0.9602,0.9593,0.9597,0.9565,0.9564,0.954,0.9534,0.9531,0.9493,0.9481,0.9447,0.9426,0.9409,0.9414,0.9401,0.9422,0.9417,0.9433,0.9431,0.9494,0.9499,0.9431,0.9431,0.9432,0,0.9705,0.9707,0.9671,0.9665,0.9651,0.9642,0.9633,0.9596,0.9588,0.956,0.9562,0.9546,0.9532,0.9513,0.9484,0.9467,0.9453,0.9476,0.945,0.9459,0.9451,0.9451,0.945,0.9481,0.9482,0.9483,0.9484,0,0.9766,0.975,0.9738,0.972,0.971,0.9695,0.9677,0.9674,0.9633,0.9625,0.9612,0.9601,0.9579,0.9563,0.9542,0.9524,0.9497,0.9492,0.9494,0.9504,0.9514,0.9507,0.9436,0.9491,0.949,0.949,0.9489,0.9489,0.9815,0.9815,0.9789,0.9777,0.976,0.9744,0.974,0.9716,0.9704,0.9683,0.9662,0.9651,0.9625,0.9594,0.9578,0.9568,0.9554,0.9557,0.9558,0.9559,0.9563,0.9517,0.9564,0.9564,0.9563,0.9563,0.9563,0,0.9873,0.9854,0.9843,0.9819,0.9809,0.9785,0.9764,0.9757,0.9747,0.9726,0.9713,0.9697,0.9681,0.965,0.9632,0.963,0.9616,0.9626,0.9625,0.9621,0.9577,0.9576,0.9637,0.9637,0.9637,0.9637,0.9637,0.9637,0.9902,0.99,0.9881,0.987,0.9851,0.984,0.983,0.9814,0.9797,0.9781,0.9768,0.9748,0.9722,0.9702,0.9686,0.9677,0.9671,0.9685,0.9672,0.9631,0.9624,0.9618,0.9616,0.9684,0.9684,0.9716,0.9716,0.9716]}]]